• în România
  • Lista ţărilor
  • Pe 7 zile
  • Temperatura apei
  • Hartă satelitară
  • Meteo pe hartă
  • Widget-uri
  • user-avatar
    Intrare

    Meteo pe oră la Konstantyna

    Astăzi, 23 Septembrie, Sâmbătă

    Timp Temperatura Precipitaţii Vânt Presiune Umiditate
    00:00 +21°C° 0 mm 0 m/s 712 mmHg 60%
    01:00 +24°C° 0,1 mm 1 m/s 712 mmHg 58%
    02:00 +24°C° 0,1 mm 1 m/s 712 mmHg 56%
    03:00 +24°C° 0,1 mm 1 m/s 712 mmHg 54%
    04:00 +24°C° 0,1 mm 2 m/s 712 mmHg 53%
    05:00 +24°C° 0,1 mm 2 m/s 712 mmHg 51%
    06:00 +24°C° 0,1 mm 3 m/s 712 mmHg 49%
    07:00 +25°C° 0 mm 3 m/s 713 mmHg 46%
    08:00 +26°C° 0 mm 3 m/s 713 mmHg 42%
    09:00 +26°C° 0 mm 2 m/s 714 mmHg 38%
    10:00 +28°C° 0 mm 2 m/s 714 mmHg 33%
    11:00 +29°C° 0 mm 2 m/s 713 mmHg 29%
    12:00 +30°C° 0 mm 2 m/s 713 mmHg 25%
    13:00 +31°C° 0 mm 2 m/s 713 mmHg 25%
    14:00 +31°C° 0 mm 2 m/s 713 mmHg 24%
    15:00 +33°C° 0 mm 3 m/s 712 mmHg 24%
    16:00 +30°C° 0,1 mm 2 m/s 712 mmHg 29%
    17:00 +29°C° 0,1 mm 2 m/s 712 mmHg 34%
    18:00 +27°C° 0,1 mm 1 m/s 712 mmHg 39%
    19:00 +27°C° 0,1 mm 1 m/s 712 mmHg 40%
    20:00 +26°C° 0,1 mm 2 m/s 712 mmHg 41%
    21:00 +26°C° 0,1 mm 2 m/s 713 mmHg 42%
    22:00 +25°C° 0 mm 1 m/s 712 mmHg 43%
    23:00 +25°C° 0 mm 1 m/s 712 mmHg 44%

    Mâine, 24 Septembrie, Duminică

    Timp Temperatura Precipitaţii Vânt Presiune Umiditate
    00:00 +25°C° 0 mm 1 m/s 712 mmHg 45%
    01:00 +24°C° 0 mm 1 m/s 712 mmHg 47%
    02:00 +24°C° 0 mm 1 m/s 712 mmHg 49%
    03:00 +23°C° 0 mm 1 m/s 712 mmHg 50%
    04:00 +23°C° 0 mm 1 m/s 712 mmHg 55%
    05:00 +23°C° 0 mm 1 m/s 712 mmHg 59%
    06:00 +22°C° 0 mm 1 m/s 712 mmHg 63%
    07:00 +23°C° 0 mm 1 m/s 712 mmHg 59%
    08:00 +25°C° 0 mm 2 m/s 713 mmHg 55%
    09:00 +26°C° 0 mm 2 m/s 713 mmHg 52%
    10:00 +27°C° 0 mm 3 m/s 713 mmHg 50%
    11:00 +28°C° 0 mm 3 m/s 713 mmHg 48%
    12:00 +28°C° 0 mm 4 m/s 714 mmHg 46%
    13:00 +28°C° 0 mm 4 m/s 713 mmHg 47%
    14:00 +28°C° 0 mm 4 m/s 713 mmHg 47%
    15:00 +28°C° 0 mm 4 m/s 713 mmHg 48%
    16:00 +27°C° 0 mm 3 m/s 713 mmHg 53%
    17:00 +25°C° 0 mm 3 m/s 713 mmHg 58%
    18:00 +24°C° 0 mm 3 m/s 713 mmHg 63%
    19:00 +23°C° 0 mm 2 m/s 713 mmHg 66%
    20:00 +23°C° 0 mm 2 m/s 713 mmHg 69%
    21:00 +22°C° 0 mm 1 m/s 713 mmHg 72%
    22:00 +22°C° 0 mm 1 m/s 713 mmHg 73%
    23:00 +21°C° 0 mm 1 m/s 713 mmHg 75%

    Poimâine, 25 Septembrie, Luni

    Timp Temperatura Precipitaţii Vânt Presiune Umiditate
    00:00 +21°C° 0 mm 1 m/s 713 mmHg 76%
    01:00 +21°C° 0 mm 1 m/s 712 mmHg 76%
    02:00 +20°C° 0 mm 1 m/s 712 mmHg 77%
    03:00 +20°C° 0 mm 1 m/s 712 mmHg 77%
    04:00 +20°C° 0 mm 1 m/s 712 mmHg 76%
    05:00 +20°C° 0 mm 1 m/s 712 mmHg 75%
    06:00 +20°C° 0 mm 1 m/s 712 mmHg 73%
    07:00 +22°C° 0 mm 1 m/s 712 mmHg 65%
    08:00 +23°C° 0 mm 1 m/s 712 mmHg 57%
    09:00 +25°C° 0 mm 1 m/s 713 mmHg 49%
    10:00 +26°C° 0 mm 1 m/s 713 mmHg 43%
    11:00 +27°C° 0 mm 1 m/s 713 mmHg 38%
    12:00 +29°C° 0 mm 2 m/s 713 mmHg 32%
    13:00 +29°C° 0 mm 2 m/s 712 mmHg 31%
    14:00 +29°C° 0 mm 2 m/s 712 mmHg 30%
    15:00 +29°C° 0 mm 3 m/s 712 mmHg 29%
    16:00 +28°C° 0 mm 3 m/s 712 mmHg 33%
    17:00 +26°C° 0 mm 3 m/s 712 mmHg 37%
    18:00 +25°C° 0 mm 3 m/s 712 mmHg 41%
    19:00 +24°C° 0 mm 2 m/s 712 mmHg 45%
    20:00 +23°C° 0 mm 2 m/s 712 mmHg 48%
    21:00 +23°C° 0 mm 1 m/s 712 mmHg 51%
    22:00 +22°C° 0 mm 1 m/s 712 mmHg 52%
    23:00 +22°C° 0 mm 1 m/s 712 mmHg 52%

    26 Septembrie, Marţi

    Timp Temperatura Precipitaţii Vânt Presiune Umiditate
    00:00 +21°C° 0 mm 1 m/s 711 mmHg 53%
    01:00 +21°C° 0 mm 1 m/s 711 mmHg 53%
    02:00 +21°C° 0 mm 1 m/s 711 mmHg 53%
    03:00 +19°C° 0 mm 0 m/s 710 mmHg 53%
    04:00 +21°C° 0 mm 1 m/s 710 mmHg 53%
    05:00 +21°C° 0 mm 1 m/s 711 mmHg 52%
    06:00 +21°C° 0 mm 1 m/s 711 mmHg 52%
    07:00 +23°C° 0 mm 1 m/s 711 mmHg 46%
    08:00 +25°C° 0 mm 1 m/s 711 mmHg 40%
    09:00 +27°C° 0 mm 1 m/s 712 mmHg 34%
    10:00 +28°C° 0 mm 1 m/s 712 mmHg 31%
    11:00 +29°C° 0 mm 2 m/s 712 mmHg 27%
    12:00 +30°C° 0 mm 2 m/s 712 mmHg 24%
    13:00 +30°C° 0 mm 3 m/s 711 mmHg 24%
    14:00 +30°C° 0 mm 3 m/s 711 mmHg 24%
    15:00 +30°C° 0 mm 3 m/s 711 mmHg 24%
    16:00 +28°C° 0 mm 3 m/s 711 mmHg 29%
    17:00 +27°C° 0 mm 3 m/s 711 mmHg 34%
    18:00 +25°C° 0 mm 3 m/s 711 mmHg 39%
    19:00 +24°C° 0 mm 2 m/s 711 mmHg 44%
    20:00 +24°C° 0 mm 1 m/s 711 mmHg 48%
    21:00 +23°C° 0 mm 1 m/s 712 mmHg 52%
    22:00 +22°C° 0 mm 1 m/s 711 mmHg 52%
    23:00 +22°C° 0 mm 1 m/s 711 mmHg 53%

    27 Septembrie, Miercuri

    Timp Temperatura Precipitaţii Vânt Presiune Umiditate
    00:00 +19°C° 0 mm 0 m/s 711 mmHg 54%
    01:00 +19°C° 0 mm 0 m/s 711 mmHg 54%
    02:00 +19°C° 0 mm 0 m/s 711 mmHg 53%
    03:00 +18°C° 0 mm 0 m/s 710 mmHg 53%
    04:00 +18°C° 0 mm 0 m/s 711 mmHg 53%
    05:00 +18°C° 0 mm 0 m/s 711 mmHg 53%
    06:00 +18°C° 0 mm 0 m/s 711 mmHg 53%
    07:00 +20°C° 0 mm 0 m/s 712 mmHg 47%
    08:00 +24°C° 0 mm 1 m/s 712 mmHg 41%
    09:00 +26°C° 0 mm 1 m/s 713 mmHg 36%
    10:00 +27°C° 0 mm 1 m/s 713 mmHg 33%
    11:00 +28°C° 0 mm 2 m/s 713 mmHg 31%
    12:00 +29°C° 0 mm 3 m/s 713 mmHg 28%
    13:00 +29°C° 0 mm 3 m/s 713 mmHg 30%
    14:00 +29°C° 0 mm 3 m/s 712 mmHg 33%
    15:00 +29°C° 0 mm 4 m/s 712 mmHg 35%
    16:00 +27°C° 0 mm 4 m/s 712 mmHg 44%
    17:00 +25°C° 0 mm 3 m/s 712 mmHg 53%
    18:00 +24°C° 0 mm 3 m/s 712 mmHg 62%
    19:00 +22°C° 0 mm 3 m/s 713 mmHg 67%
    20:00 +21°C° 0 mm 2 m/s 713 mmHg 71%
    21:00 +21°C° 0 mm 1 m/s 713 mmHg 76%
    22:00 +21°C° 0 mm 1 m/s 713 mmHg 78%
    23:00 +20°C° 0 mm 1 m/s 713 mmHg 81%

    28 Septembrie, Joi

    Timp Temperatura Precipitaţii Vânt Presiune Umiditate
    00:00 +20°C° 0 mm 1 m/s 713 mmHg 83%
    01:00 +20°C° 0 mm 1 m/s 713 mmHg 85%
    02:00 +19°C° 0 mm 1 m/s 713 mmHg 87%
    03:00 +19°C° 0 mm 1 m/s 712 mmHg 88%
    04:00 +19°C° 0 mm 1 m/s 713 mmHg 89%
    05:00 +19°C° 0 mm 1 m/s 713 mmHg 89%
    06:00 +18°C° 0 mm 1 m/s 713 mmHg 90%
    07:00 +20°C° 0 mm 1 m/s 713 mmHg 80%
    08:00 +21°C° 0 mm 1 m/s 714 mmHg 71%
    09:00 +21°C° 0 mm 2 m/s 714 mmHg 61%
    10:00 +23°C° 0 mm 2 m/s 714 mmHg 55%
    11:00 +25°C° 0 mm 2 m/s 714 mmHg 50%
    12:00 +26°C° 0 mm 3 m/s 714 mmHg 44%
    13:00 +26°C° 0 mm 3 m/s 714 mmHg 44%
    14:00 +26°C° 0 mm 4 m/s 714 mmHg 44%
    15:00 +26°C° 0 mm 4 m/s 713 mmHg 44%
    16:00 +23°C° 0 mm 4 m/s 714 mmHg 52%
    17:00 +22°C° 0 mm 3 m/s 714 mmHg 60%
    18:00 +21°C° 0 mm 3 m/s 714 mmHg 68%
    19:00 +20°C° 0 mm 3 m/s 714 mmHg 72%
    20:00 +19°C° 0 mm 2 m/s 714 mmHg 77%
    21:00 +20°C° 0 mm 1 m/s 715 mmHg 81%
    22:00 +19°C° 0 mm 1 m/s 714 mmHg 83%
    23:00 +19°C° 0 mm 1 m/s 714 mmHg 85%
    Arată mai mult